AirNav   Pilot Hours Calculator
 
 1027 users online  

T00 Chambers County Airport
Anahuac, Texas, USA

GOING TO ANAHUAC?


FAA INFORMATION EFFECTIVE 05 NOVEMBER 2020

Location

FAA Identifier: T00
Lat/Long: 29-46-11.3332N 094-39-48.5535W
29-46.188887N 094-39.809225W
29.7698148,-94.6634871
(estimated)
Elevation: 21.2 ft. / 6.5 m (surveyed)
Variation: 05E (1995)
From city: 1 mile E of ANAHUAC, TX
Time zone: UTC -6 (UTC -5 during Daylight Saving Time)
Zip code: 77514

Airport Operations

Airport use: Open to the public
Activation date: 10/1978
Control tower: no
ARTCC: HOUSTON CENTER
FSS: MONTGOMERY COUNTY FLIGHT SERVICE STATION
NOTAMs facility: CXO (NOTAM-D service available)
Attendance: MON-FRI 0800-1700
Wind indicator: lighted
Segmented circle: yes
Lights: DUSK-DAWN. MIRL RWY 12/30 PRESET LOW INTST; TO INCR INTST ACTVT - CTAF.
Beacon: white-green (lighted land airport)
Operates sunset to sunrise.

Airport Communications

CTAF: 122.9
HOUSTON APPROACH: 134.45 [0600-0000]
HOUSTON DEPARTURE: 134.45 [0600-0000]
BLTWY RNAV DP: 134.45
BLUEBELL STAR: 124.225
BORRN RNAV DP: 134.45
CESAN STAR: 121.3
DREMR DP: 134.45
HOODO RNAV DP: 134.45
HUDZY STAR: 120.05
INDIE RNAV DP: 134.45
KARRR RNAV DP: 134.45
LURIC DP: 134.45
MMALT RNAV DP: 134.45
OHIIO STAR: 120.05
STRYA DP: 134.45
STYCK DP: 134.45
TKNIQ STAR: 119.625
WAPPL STAR: 120.05
WATFO DP: 134.45
WYLSN RNAV DP: 134.45

Nearby radio navigation aids

VOR radial/distance  VOR name  Freq  Var
MHFr011/14.1TRINITY VOR/DME113.6007E
DASr177/25.2DAISETTA VORTAC116.9005E
VUHr014/31.9SCHOLES VOR/DME113.0006E
SBIr272/33.0SABINE PASS VOR/DME115.4007E
BPTr246/35.3BEAUMONT VOR/DME114.5007E
IAHr103/37.2HUMBLE VORTAC116.6005E

 
NDB name  Hdg/Dist  Freq  Var  ID
GOODHUE226/29.636807EGDE --. -.. .

Airport Services

Fuel available: 100LL JET-A
Parking: tiedowns
Bottled oxygen: NONE
Bulk oxygen: NONE

Runway Information

Runway 12/30

Dimensions: 3005 x 60 ft. / 916 x 18 m
Surface: asphalt, in poor condition
EXTSV CRACKING WITH VEGETATION GROWING THRU.
Weight bearing capacity: 
Single wheel: 13.0
Runway edge lights: medium intensity
RUNWAY 12  RUNWAY 30
Latitude: 29-46.363987N29-46.053815N
Longitude: 094-39.966058W094-39.522763W
Elevation: 20.4 ft.20.4 ft.
Traffic pattern: leftright
Runway heading: 124 magnetic, 129 true304 magnetic, 309 true
Markings: nonprecision, in good conditionnonprecision, in good condition
Visual slope indicator: 2-light PAPI on left (4.00 degrees glide path)
Touchdown point: yes, no lightsyes, no lights
Obstructions: 45 ft. pole, 882 ft. from runway, 160 ft. left of centerline, 15:1 slope to clear15 ft. road, 530 ft. from runway, 280 ft. left of centerline, 22:1 slope to clear

Runway 17/35

Dimensions: 1900 x 300 ft. / 579 x 91 m
Surface: turf, in good condition
RUNWAY 17  RUNWAY 35
Latitude: 29-46.313965N29-46.000500N
Longitude: 094-39.911733W094-39.911733W
Elevation: 20.0 ft.20.0 ft.
Traffic pattern: leftright
Runway heading: 175 magnetic, 180 true355 magnetic, 000 true
Markings: none, in good conditionnone, in good condition
Touchdown point: yes, no lightsyes, no lights
Obstructions: 60 ft. trees, 890 ft. from runway, 90 ft. left of centerline, 14:1 slope to clear17 ft. road, 230 ft. from runway, 13:1 slope to clear

Airport Ownership and Management from official FAA records

Ownership: Publicly-owned
Owner: CHAMBERS COUNTY
PO BOX 938
ANAHUAC, TX 77514
Phone 409-267-2400
Manager: KELLY TRAHAN
PO BOX 938
ANAHUAC, TX 77514
Phone 409-267-2719

Airport Operational Statistics

Aircraft based on the field: 9
Single engine airplanes: 8
Multi engine airplanes: 1
    
Aircraft operations: avg 46/week *
67% local general aviation
33% transient general aviation
* for 12-month period ending 23 April 2020

Additional Remarks

RWY 17/35 SOFT WHEN WET.
RWY 17, PAPI RWY 12 IN RWY 17 APCH, DO NOT LAND BFR XNG RWY 12.
FOR CD CTC HOUSTON APCH AT 281-443-5844 TO CNL IFR CALL 281-443-5888.

Instrument Procedures

NOTE: All procedures below are presented as PDF files. If you need a reader for these files, you should download the free Adobe Reader.

NOT FOR NAVIGATION. Please procure official charts for flight.
FAA instrument procedures published for use from 05 November 2020 at 0901Z to 03 December 2020 at 0900z.

 
STARs - Standard Terminal Arrivals
BLUBELL FOUR   download (318KB)
CESAN FOUR (RNAV)   2 pages: [1] [2] (407KB)
HUDZY FOUR   2 pages: [1] [2] (348KB)
OHIIO FOUR   download (308KB)
TKNIQ TWO (RNAV)   2 pages: [1] [2] (333KB)
TSHRT ONE ARRIVAL   2 pages: [1] [2] (379KB)
WAPPL FIVE (RNAV)   2 pages: [1] [2] (424KB)
WAPPL FIVE (RNAV), CONT.2   download (287KB)
 
IAPs - Instrument Approach Procedures
RNAV (GPS) RWY 12   download (188KB)
 
Departure Procedures
BLTWY SIX (RNAV)   download (154KB)
BORRN FOUR (RNAV)   2 pages: [1] [2] (300KB)
HOODO SIX (RNAV)   download (203KB)
INDIE SEVEN (RNAV)   download (179KB)
KARRR SIX (RNAV)   2 pages: [1] [2] (256KB)
LURIC SEVEN (RNAV)   download (197KB)
MMALT FIVE (RNAV)   download (214KB)
PALACIOS ONE   2 pages: [1] [2] (309KB)
STRYA SEVEN (RNAV)   download (186KB)
STYCK SEVEN (RNAV)   download (173KB)
WATFO FIVE (RNAV)   download (160KB)
WYLSN SEVEN (RNAV)   download (162KB)
NOTE: Special Take-Off Minimums/Departure Procedures apply   download (70KB)

Other nearby airports with instrument procedures:

54T - RWJ Airpark (10 nm W)
KHPY - Baytown Airport (15 nm W)
T78 - Liberty Municipal Airport (19 nm N)
T41 - La Porte Municipal Airport (22 nm W)
KEFD - Ellington Airport (28 nm W)
 
Loc | Ops | Rwys | IFR | FBO | Links
Com | Nav | Svcs | Stats | Notes
Area around T00 (Chambers County Airport)
 
Road maps at: MapQuest Bing Google
 
Aerial photo
WARNING: Photo may not be current or correct
Aerial photo of T00 (Chambers County Airport)
Photo taken 04-Mar-2007
on final for runway 30

Do you have a better or more recent aerial photo of Chambers County Airport that you would like to share? If so, please send us your photo.

 
Sectional chart

 
Airport distance calculator
Flying to Chambers County Airport? Find the distance to fly.

From to T00

Sunrise and sunset
Times for 28-Nov-2020
 Local
(UTC-6)
 Zulu
(UTC)
Morning civil twilight06:3012:30
Sunrise06:5612:56
Sunset17:1823:18
Evening civil twilight17:4423:44

Current date and time
Zulu (UTC)  28-Nov-2020 22:34:40
Local (UTC-6)  28-Nov-2020 16:34:40
 
METAR
KT41 
22nm W 
282215Z AUTO 09010KT 5SM RA BR OVC006 18/17 A3001 RMK AO2 T01780173
KEFD 
28nm W 
282150Z 08007KT 4SM -RA BKN006 OVC010 18/17 A3001
KBMT 
29nm NE 
282210Z AUTO 08004KT 10SM RA OVC005 17/16 A3003 RMK AO2 T01670162
KGLS 
32nm S 
282152Z 06011KT 10SM -RA FEW012 BKN080 OVC120 20/18 A3001 RMK AO2 SLP163 P0008 T02000178
KHOU 
33nm W 
282201Z 09013KT 5SM -RA OVC008 19/17 A2999 RMK AO2 CIG 006V012 P0002 T01890172
KLVJ 
34nm SW 
282153Z AUTO 10007KT 4SM RA BR BKN006 OVC010 19/17 A3002 RMK AO2 CIG 005V009 SLP166 P0009 T01890172
KBPT 
35nm E 
282153Z 07006KT 4SM RA BR OVC006 17/17 A3004 RMK AO2 CIG 005V009 SLP172 P0003 T01670167
KIAH 
39nm W 
282153Z 11007KT 6SM -RA BR OVC005 16/15 A3002 RMK AO2 SLP164 P0005 T01610150
K6R3 
39nm NW 
282215Z AUTO 00000KT 7SM -RA OVC005 15/15 A3003 RMK AO2 T01480148
TAF
KEFD 
28nm W 
282149Z 2821/3002 07009KT 6000 -RA BKN007 OVC013 QNH2984INS BECMG 2914/2915 32012KT 9999 NSW OVC003 QNH2994INS BECMG 2915/2916 32015G20KT 9999 BKN003 QNH2997INS BECMG 2916/2917 33020G25KT 9999 OVC011 QNH3000INS BECMG 2922/2923 32020G25KT 9999 SCT030 QNH3001INS BECMG 3000/3001 33012KT 9999 SCT025 QNH3007INS TX18/2821Z TN15/2920Z
KGLS 
32nm S 
282104Z 2821/2918 07014KT 4SM SHRA BR BKN007 OVC110 FM290400 06018KT 6SM -SHRA BR VCTS OVC009CB FM291100 35015KT 5SM SHRA VCTS OVC007CB
KHOU 
33nm W 
282104Z 2821/2918 07010KT 5SM -SHRA BKN008 OVC016 FM290700 04008KT 3SM SHRA BR VCTS OVC006CB FM291100 34010KT 2SM SHRA VCTS OVC006CB FM291400 33012G20KT 6SM BR OVC010
KBPT 
35nm E 
281732Z 2818/2918 06010KT P6SM VCSH OVC007 TEMPO 2818/2822 4SM -SHRA OVC004 FM282200 08012G20KT 6SM -SHRA OVC008 TEMPO 2822/2902 4SM SHRA OVC004 FM290600 06007KT 4SM -SHRA OVC005 FM291600 34011G19KT P6SM OVC007
NOTAMs
Click for the latest NOTAMs
NOTAMs are issued by the DoD/FAA and will open in a separate window not controlled by AirNav.

 

 
 

FBO, Fuel Providers, and Aircraft Ground Support

  
 Business Name 
 
 Contact 
 
 Services / Description 
 
Fuel Prices
 
Comments
  
Chambers County Anahuac Airport 409-267-2719
no information available

If you are affiliated with Chambers County Anahuac Airport and would like to show here your services, contact info, web link, logo, and more, click here
100LL Jet A
SS $4.00 $3.40 
 Updated 23-Nov-2020
 
   1 read write
SS=Self service
Update Fuel Prices
 

Would you like to see your business listed on this page?

 If your business provides an interesting product or service to pilots, flight crews, aircraft, or users of the Chambers County Airport, you should consider listing it here.  To start the listing process, click on the button below
 
Add a business
 

Other Pages about Chambers County Airport

www.co.chambers.tx.us/...
 
Update a link
 
Copyright © AirNav, LLC. All rights reserved. Privacy Policy  Contact